Tracking 19831 objects as of 23-Aug-2019
HD Live streaming from Space Station
objects crossing your sky now

BREEZE-M DEB

Track BREEZE-M DEB now!


NORAD ID: 38187
Int'l Code: 2011-069D
Perigee: 11,855.9 km
Apogee: 34,257.9 km
Inclination: 2.0 °
Period: 837.3 minutes
Semi major axis: 29427 km
RCS: 0.003 m2 (small)
Launch date: November 25, 2011
Source: Commonwealth of Independent States (former USSR) (CIS)
Launch site: TYURATAM MISSILE AND SPACE COMPLEX (TTMTR)

Note: This is SATELLITE DEBRIS
aabbcc
Your satellite tracking list
Your tracking list is empty




NASA's NSSDC Master Catalog

Two Line Element Set (TLE):
1 38187U 11069D   19234.69890910 -.00000087  00000-0  00000+0 0  9990
2 38187   1.9813 338.0431 3806242 222.7350 100.7160  1.71974450 46204
Source of the keplerian elements: AFSPC